Back to catalog

ATLAS 5 CENTAUR DEB

LostHEO
NORAD 46851·DEBRIS·🇺🇸 United States

Launched Oct 17, 2018 from Cape Canaveral Space Force Station

Loading…

Next Passes (next 24 hours)

TLE

StaleSource: Space-Track

Epoch: Jan 16, 2021, 19:40 UTC

1 46851U 18079DG  21016.82004696 -.00000086  00000-0  00000+0 0  9998
2 46851  11.1242 241.6438 4031806 326.6431  13.4583  1.96853897  1508

Track ATLAS 5 CENTAUR DEB in real time with AllMySat

Download on the App Store